Theta_e
327 327 327 328 332 336 342 344 345 344 342 340 338 340 338 339 338 337 336 337 337 336 332 333 334 336 337 337 337 339 338 337 336 338 337 336 334 333 332 334 334 333 333
326 326 326 328 330 333 339 344 346 345 343 342 340 339 339 339 338 337 336 337 333 334 329 324 335 338 339 337 338 337 337 337 335 337 337 335 334 332 333 331 331 329 328
326 326 326 326 327 330 335 342 345 346 344 342 341 341 342 341 339 337 337 335 331 327 323 331 338 338 336 337 335 336 336 337 336 335 336 335 332 330 329 328 327 328 326
326 326 326 325 326 325 330 337 343 345 346 344 343 343 342 341 339 337 336 335 332 325 333 335 338 338 337 337 337 336 336 337 337 335 334 332 331 329 324 323 323 322 321
326 326 326 326 326 326 324 331 337 343 345 347 344 344 343 341 340 338 336 335 333 331 338 338 338 338 336 336 336 337 337 336 334 333 329 327 325 324 322 320 320 318 316
326 326 325 325 326 326 326 325 335 339 343 346 345 345 343 341 340 338 337 336 337 338 338 337 337 337 337 338 337 335 333 330 329 326 324 323 322 319 319 319 316 313 312
325 325 325 325 325 325 327 325 331 336 341 346 346 345 344 342 341 339 338 337 335 335 336 337 338 338 337 335 335 332 328 325 322 320 320 317 316 312 311 312 311 311 310
325 324 325 325 325 325 329 327 331 335 339 344 346 344 345 343 342 341 339 337 332 334 337 337 336 337 334 332 330 326 317 313 311 305 307 312 308 304 304 307 309 308 308
325 325 325 325 325 325 326 328 333 336 339 344 346 344 344 344 344 342 339 337 333 335 337 336 335 333 332 328 322 315 311 306 303 303 303 303 303 302 302 303 304 307 307
325 325 324 325 325 325 326 331 336 336 339 344 345 344 344 344 344 341 339 336 334 336 335 335 333 331 326 322 313 308 304 304 303 303 302 302 302 303 303 304 304 305 305
324 324 325 325 326 325 325 333 339 339 340 343 344 344 343 342 341 340 338 336 335 335 333 332 330 327 321 311 306 304 303 303 302 302 301 302 303 304 303 302 302 302 301
325 325 324 327 327 327 330 333 339 340 342 342 343 341 340 339 339 339 337 335 334 333 332 330 326 318 309 305 304 304 303 302 301 301 302 302 303 302 302 301 300 300 301
324 325 326 328 329 331 332 336 337 339 340 340 339 339 339 337 336 336 334 333 333 330 326 323 315 308 305 304 303 303 302 301 301 302 302 302 302 301 301 299 300 300 299
323 325 326 327 327 329 331 333 332 335 337 337 336 335 337 336 335 332 333 332 328 327 322 314 308 305 304 304 303 302 300 300 301 301 301 301 301 300 298 298 298 297 297
323 324 325 326 325 327 330 331 329 332 333 333 334 337 336 334 331 332 330 327 326 322 315 307 305 304 304 303 302 300 300 300 301 301 302 302 299 298 297 297 297 297 296
323 322 323 325 324 325 328 330 327 330 330 332 335 335 331 328 331 327 325 322 318 311 307 305 304 304 304 302 299 299 299 300 301 302 301 299 298 298 298 297 297 296 295
322 322 321 322 323 323 325 327 327 326 327 331 332 332 328 329 328 327 322 315 309 306 305 305 305 304 302 299 299 299 300 301 302 301 298 298 298 298 297 297 296 295 294
322 321 322 320 319 322 323 326 325 322 326 326 327 326 323 324 322 319 314 309 307 305 305 305 304 302 300 299 298 300 302 302 300 298 297 298 298 297 296 296 295 294 293
322 321 321 322 320 319 321 324 322 320 320 322 322 321 323 321 317 313 311 308 306 306 305 304 302 300 299 298 301 302 302 300 298 297 297 297 297 296 296 295 294 292 292
320 321 321 320 321 320 319 322 322 319 318 319 321 322 317 320 315 312 309 307 306 305 303 303 301 299 298 300 301 301 299 298 297 297 297 297 297 296 295 294 292 292 291
318 320 320 320 320 320 318 320 322 318 319 319 319 317 315 314 312 310 307 306 305 304 306 307 299 298 300 300 299 298 298 298 297 297 297 297 296 296 294 292 291 291 289
314 315 316 318 320 320 318 319 320 319 316 316 317 316 313 312 310 309 306 305 305 306 303 299 298 299 300 299 298 298 297 296 296 296 296 296 295 294 293 291 290 289 288
314 315 316 318 320 320 318 317 318 319 316 314 313 313 311 310 309 307 305 304 305 302 299 299 299 299 298 298 297 296 296 296 295 294 294 294 294 293 292 290 290 289 287
313 313 314 316 319 320 319 317 317 318 317 314 312 311 310 310 307 306 304 306 304 301 299 298 299 299 299 297 297 296 296 295 294 294 294 294 293 292 291 290 290 289 287
309 311 312 314 317 320 319 318 316 318 316 313 311 309 310 308 306 305 304 303 301 306 299 298 298 298 299 298 297 296 296 295 295 294 293 293 292 292 291 291 290 289 287
309 310 311 313 314 317 319 317 314 317 315 311 310 308 307 306 305 304 301 301 304 300 298 298 297 298 299 298 297 297 296 296 295 294 293 293 292 292 291 291 290 288 286
Wind_Speed
35 32 30 29 27 27 30 32 31 31 31 33 34 31 29 25 24 22 23 25 26 27 27 21 20 18 18 18 15 14 14 16 15 10 10 12 11 12 12 11 13 10 8
31 32 33 31 31 31 33 34 34 34 35 32 32 30 28 25 24 24 25 27 28 27 27 25 21 21 19 19 19 19 14 12 11 9 8 10 8 13 7 4 4 10 7
30 30 32 34 34 35 36 39 39 36 38 35 30 27 24 24 25 27 26 29 28 30 26 26 23 22 22 23 20 17 15 14 15 13 8 5 8 5 7 8 5 10 6
38 35 36 37 36 40 41 43 41 38 39 39 34 35 35 33 33 31 29 28 30 29 28 25 25 24 22 19 17 17 18 18 19 15 14 15 8 6 8 7 6 10 11
44 42 42 42 40 38 42 44 43 41 40 41 40 41 37 33 28 27 28 30 30 28 25 27 27 26 24 23 21 20 19 17 16 9 8 6 6 8 9 13 10 8 11
46 45 46 46 45 41 44 43 45 43 44 44 45 41 43 35 32 31 31 33 32 35 32 31 29 26 24 19 18 15 12 6 8 8 9 8 7 7 9 11 12 12 13
37 38 39 43 44 44 45 46 46 45 46 46 47 43 42 37 36 34 41 40 38 37 32 30 29 25 21 20 20 16 16 13 10 11 7 6 5 8 8 7 10 11 11
32 37 38 39 39 38 36 45 42 46 46 48 49 48 43 40 34 41 40 37 40 37 34 30 27 26 24 21 18 16 15 14 13 11 9 7 8 8 8 6 6 10 11
30 29 34 34 37 38 32 36 38 44 45 48 47 47 43 39 38 41 37 37 37 37 33 31 31 26 23 21 19 17 15 13 11 9 10 11 10 10 10 9 8 5 7
29 28 28 30 31 34 32 32 33 37 41 44 44 46 44 40 41 41 36 35 39 39 35 32 28 24 24 21 19 17 14 13 12 12 10 9 9 9 7 6 5 3 6
19 23 17 14 20 26 32 31 30 32 37 41 44 43 44 43 41 38 38 39 40 38 34 30 27 27 24 21 19 16 14 13 11 10 9 9 6 6 5 5 6 6 7
15 18 21 15 15 20 22 24 28 31 37 43 47 46 43 46 45 44 43 42 40 34 32 30 29 27 24 22 20 17 15 12 10 9 8 8 7 6 5 5 5 5 5
8 12 11 14 17 20 23 28 33 39 42 45 44 47 50 48 47 44 46 42 38 35 33 32 30 27 25 23 19 15 12 11 11 10 9 7 5 4 4 4 2 3 4
8 9 11 13 16 19 24 28 34 39 40 42 45 49 44 47 44 47 45 40 38 36 35 33 30 27 24 20 17 14 13 12 12 10 7 6 5 6 5 4 5 7 8
4 7 12 13 16 18 22 21 27 37 39 38 43 47 46 48 48 46 43 40 38 38 35 33 30 25 22 19 16 13 12 12 10 8 8 7 6 5 5 6 8 8 8
3 5 7 12 14 17 20 21 25 36 38 42 45 45 45 49 48 44 43 41 40 37 34 31 28 25 22 18 14 13 13 12 11 10 9 8 6 6 6 7 7 7 8
8 7 9 8 10 15 18 21 23 30 37 42 46 47 50 50 50 47 43 41 39 36 33 30 26 25 20 16 15 15 14 12 11 11 8 7 7 8 8 7 6 7 7
17 15 13 11 12 12 16 19 22 24 39 43 45 47 50 50 49 45 43 42 39 36 33 30 27 23 17 16 16 15 15 14 13 10 9 8 9 9 7 6 7 7 6
20 13 12 10 12 17 18 21 22 25 36 43 47 49 52 52 48 45 42 41 40 37 33 29 24 19 18 18 18 18 17 15 13 12 11 12 11 8 6 7 6 6 5
32 23 22 19 17 17 22 26 26 28 41 44 47 50 48 49 49 46 45 42 39 34 31 24 20 22 20 21 21 20 18 16 15 15 15 14 11 7 8 8 4 1 6
13 21 25 24 27 23 24 29 31 35 39 47 47 47 47 48 48 49 46 43 38 33 28 25 27 24 23 25 24 22 19 18 17 17 16 13 10 10 10 7 6 6 5
19 22 22 27 25 25 26 28 32 34 39 43 48 47 47 47 51 49 46 42 37 33 30 30 28 26 27 25 24 21 21 19 18 16 13 11 11 11 9 8 5 5 5
22 20 20 24 25 23 26 30 32 33 37 41 46 47 48 50 52 50 48 42 36 35 34 35 32 31 29 26 22 22 19 18 15 12 10 10 11 11 9 8 7 6 6
23 24 22 22 27 29 29 32 33 36 41 44 45 50 54 53 52 50 49 44 42 37 38 37 36 34 32 31 28 25 20 17 12 12 10 10 11 11 10 10 9 8 8
33 31 27 26 25 28 29 30 35 39 43 45 47 49 56 57 54 53 49 44 39 38 41 35 32 35 35 34 29 24 22 17 13 13 12 12 12 12 12 13 12 10 9
33 32 32 31 28 24 29 33 39 40 47 48 46 49 56 55 56 55 47 40 33 32 30 24 27 30 29 26 25 22 19 16 16 16 16 13 12 12 14 14 12 11 10
Wind_Direction
225 222 219 219 215 209 205 204 201 204 203 199 200 200 204 207 204 205 204 207 210 208 211 203 215 211 210 214 227 220 222 231 228 236 249 263 273 276 283 262 261 259 271
225 225 223 215 214 212 207 205 205 202 204 204 205 205 205 205 204 203 207 206 211 208 216 210 211 214 206 212 221 224 231 241 243 241 263 272 277 286 229 258 268 270 264
221 223 223 219 213 213 209 206 207 206 207 204 201 202 203 202 201 205 205 211 212 214 216 214 202 214 213 220 230 228 232 237 238 245 247 264 271 314 270 259 261 261 289
229 227 230 225 216 224 212 211 207 207 210 203 201 202 200 200 206 204 206 207 210 212 213 207 206 211 222 224 231 235 241 240 251 258 257 252 251 254 266 247 256 282 287
234 235 233 233 225 227 226 212 209 208 209 209 201 201 202 206 203 201 202 199 210 206 204 207 211 217 225 237 242 245 249 240 258 223 253 232 248 248 251 273 273 268 285
230 230 241 237 234 221 230 222 208 207 207 210 207 203 203 200 197 196 196 194 199 200 206 213 221 229 233 231 232 228 217 178 194 197 201 208 228 238 250 263 274 282 284
242 235 236 237 233 230 217 224 209 207 206 206 211 202 205 197 198 194 203 205 204 205 208 216 219 221 223 216 214 223 213 207 202 197 211 213 218 240 246 258 270 277 274
239 233 236 234 233 230 209 216 209 208 205 204 206 204 204 198 200 203 214 210 205 205 207 211 213 208 216 218 212 209 206 211 219 225 212 220 241 256 259 257 267 283 286
241 239 231 232 228 232 214 218 210 207 204 202 202 202 201 199 202 212 216 212 204 205 206 205 208 208 213 206 203 207 213 221 226 239 244 242 260 262 263 263 268 265 289
233 241 245 229 229 224 216 210 211 207 203 202 200 200 199 195 204 208 214 202 199 203 206 206 202 206 201 202 205 211 215 221 230 241 242 246 257 270 269 267 272 274 268
233 219 225 225 220 221 219 200 204 203 199 201 197 195 196 195 195 203 199 198 198 201 199 196 200 199 197 201 207 212 217 224 231 239 245 244 241 233 253 281 288 283 283
217 222 234 192 209 205 202 202 202 198 197 199 198 199 196 193 200 195 192 195 195 192 190 193 192 192 198 202 207 212 221 229 237 234 231 236 239 252 272 287 293 289 281
179 180 181 189 195 189 192 197 198 202 205 206 201 192 190 196 191 195 194 191 188 186 185 186 188 192 198 200 204 215 220 225 225 223 228 237 241 250 256 262 266 288 295
147 163 184 193 196 194 192 204 202 204 201 202 199 198 200 202 197 188 186 184 185 185 185 186 190 194 195 201 208 212 216 221 221 225 231 231 229 236 247 261 279 288 295
164 172 184 186 190 194 192 196 201 202 202 204 203 200 199 195 187 187 182 184 185 186 185 186 187 191 196 203 207 212 216 220 220 219 218 226 234 250 272 276 283 289 303
175 218 223 183 187 192 194 195 199 200 202 202 200 197 191 187 187 182 183 184 182 180 183 183 187 192 197 205 212 219 219 216 210 208 213 219 238 254 266 267 272 290 304
256 197 232 199 199 197 198 198 200 202 202 202 199 193 187 188 187 188 186 182 180 180 180 183 188 194 202 204 217 217 213 208 201 205 214 229 243 255 255 256 275 285 295
288 262 221 231 227 221 209 198 195 195 199 199 196 191 185 188 184 183 181 182 182 180 182 185 192 199 198 210 209 203 199 198 201 208 217 232 242 244 249 270 279 282 316
276 273 266 240 224 211 212 197 194 193 189 193 194 189 192 189 185 179 179 180 181 180 185 190 194 197 205 203 197 195 194 199 206 213 216 228 231 230 245 257 268 296 302
245 256 255 261 256 219 208 199 194 191 192 193 197 197 185 192 187 184 182 183 185 184 183 189 199 204 200 192 193 193 195 204 210 214 221 220 220 221 239 240 245 296 272
262 256 255 262 250 222 202 203 199 196 205 198 194 191 188 185 182 187 186 185 179 180 190 200 199 196 192 191 192 195 201 210 211 216 215 210 211 222 228 230 219 234 275
252 251 255 247 247 220 200 205 206 207 196 191 192 190 187 178 186 190 185 181 183 189 191 192 191 187 189 193 192 196 206 207 210 207 204 203 211 220 217 224 239 255 260
250 247 257 248 239 219 209 211 208 201 193 187 187 183 181 187 194 189 184 183 187 190 191 192 188 187 188 184 187 189 194 199 192 190 193 197 211 216 220 228 239 248 245
259 261 258 251 251 236 220 216 210 201 190 186 184 184 190 195 192 188 187 189 191 190 195 191 190 192 190 188 189 190 189 187 189 191 200 205 215 222 228 238 241 240 236
258 256 255 252 248 246 232 215 206 198 188 186 184 185 196 197 190 189 191 193 192 203 198 198 202 201 198 199 200 202 198 191 193 205 211 214 219 224 231 236 242 244 242
252 255 255 254 250 250 237 214 200 199 189 185 184 184 191 190 185 187 183 195 201 199 200 207 211 204 209 201 199 201 199 201 209 215 221 222 227 235 237 240 242 245 246